Marietta, GA

4:21 AM EDT on May 26, 2018 (GMT -0400)
Dobbins Air Force Base

Weather History for KMGE - January, 2014

Change the Weather History Date:

Thursday, January 16, 2014

  Actual Average Record
Temperature  
Mean Temperature 34 °F -  
Max Temperature 46 °F 49 °F 68 °F (2017)
Min Temperature 21 °F 31 °F 10 °F (2009)
Degree Days  
Heating Degree Days 32    
Moisture  
Dew Point 14 °F    
Average Humidity 48    
Maximum Humidity 81    
Minimum Humidity 22    
Precipitation  
Precipitation 0.00 in - - ()
Sea Level Pressure  
Sea Level Pressure 30.05 in    
Wind  
Wind Speed 7 mph (WSW)    
Max Wind Speed 10 mph    
Max Gust Speed -    
Visibility 10 miles    
Events      
Averages and records for this station are not official NWS values.
T = Trace of Precipitation, MM = Missing Value Source: NWS Daily Summary

Daily Weather History Graph

Daily Weather History Graph

Search for Another Location

Airport or City:

Astronomy

Jan. 16, 2014 Rise Set
Actual Time 7:42 AM EST 5:53 PM EST
Civil Twilight 7:15 AM EST 6:20 PM EST
Nautical Twilight 6:45 AM EST 6:50 PM EST
Astronomical Twilight 6:15 AM EST 7:20 PM EST
Moon 6:39 PM EST (1/16) 7:39 AM EST (1/16)
Length of Visible Light 11h 04m
Length of Day
10h 10m
Full, 100% of the Moon is Illuminated
Jan 16
Full
Jan 24
Last Quarter
Jan 30
New
Feb 6
First Quarter
Feb 14
Full

Hourly Weather History & Observations

Time (EST) Temp. Windchill Dew Point Humidity Pressure Visibility Wind Dir Wind Speed Gust Speed Precip Events Conditions
12:58 AM 28.8 °F 22.6 °F 17.2 °F 62% 30.03 in 10.0 mi NW 5.8 mph - N/A   Clear
1:58 AM 27.9 °F 18.4 °F 16.5 °F 62% 30.03 in 10.0 mi NW 10.4 mph - N/A   Clear
2:58 AM 26.8 °F 17.7 °F 16.0 °F 64% 30.04 in 10.0 mi NW 9.2 mph - N/A   Clear
3:58 AM 24.3 °F 14.6 °F 16.2 °F 71% 30.07 in 10.0 mi WNW 9.2 mph - N/A   Clear
4:58 AM 25.3 °F 17.6 °F 15.8 °F 67% 30.07 in 10.0 mi NW 6.9 mph - N/A   Clear
5:58 AM 24.1 °F 17.0 °F 15.1 °F 69% 30.07 in 10.0 mi NW 5.8 mph - N/A   Clear
6:58 AM 23.9 °F 15.8 °F 15.1 °F 69% 30.09 in 10.0 mi NW 6.9 mph - N/A   Clear
7:58 AM 21.0 °F 14.6 °F 16.2 °F 81% 30.11 in 10.0 mi West 4.6 mph - N/A   Clear
8:58 AM 26.2 °F 17.8 °F 18.1 °F 71% 30.14 in 10.0 mi West 8.1 mph - N/A   Clear
9:58 AM 29.7 °F 21.3 °F 16.7 °F 59% 30.14 in 10.0 mi WNW 9.2 mph - N/A   Clear
10:58 AM 32.7 °F 27.3 °F 15.1 °F 48% 30.12 in 10.0 mi NNW 5.8 mph - N/A   Clear
11:58 AM 36.1 °F 30.6 °F 15.1 °F 42% 30.09 in 10.0 mi West 6.9 mph - N/A   Clear
12:58 PM 40.1 °F 34.1 °F 11.8 °F 32% 30.05 in 10.0 mi West 9.2 mph - N/A   Clear
1:58 PM 42.8 °F 38.6 °F 7.5 °F 24% 30.03 in 10.0 mi WSW 6.9 mph - N/A   Clear
2:58 PM 45.1 °F 40.8 °F 9.9 °F 24% 30.01 in 10.0 mi SW 8.1 mph - N/A   Clear
3:58 PM 46.4 °F 41.9 °F 9.3 °F 22% 30.00 in 10.0 mi WSW 9.2 mph - N/A   Clear
4:58 PM 45.3 °F 40.6 °F 10.9 °F 25% 30.00 in 10.0 mi South 9.2 mph - N/A   Clear
5:58 PM 41.7 °F 38.0 °F 11.5 °F 29% 29.99 in 10.0 mi SSE 5.8 mph - N/A   Partly Cloudy
6:58 PM 39.9 °F 35.1 °F 11.7 °F 31% 30.00 in 10.0 mi South 6.9 mph - N/A   Clear
7:58 PM 39.0 °F 36.8 °F 12.6 °F 34% 30.03 in 10.0 mi SSW 3.5 mph - N/A   Clear
8:58 PM 37.8 °F 34.2 °F 12.9 °F 36% 30.05 in 10.0 mi SSW 4.6 mph - N/A   Clear
9:58 PM 37.0 °F - 13.3 °F 38% 30.06 in 10.0 mi SSW 2.3 mph - N/A   Clear
10:58 PM 33.6 °F - 17.1 °F 51% 30.05 in 10.0 mi South 2.3 mph - N/A   Partly Cloudy
11:58 PM 35.1 °F 31.0 °F 14.7 °F 43% 30.02 in 10.0 mi South 4.6 mph - N/A   Clear